Location: ActonStarParty
(42.4766°N, 71.4538°W)
Time: 05:33:45
(UTC-04:00)

Cosmos 1300 - Visible Passes

Search period start: 01 November 2014 00:00
Search period end: 10 November 2014 23:00
Orbit: 529 x 530 km, 82.5° (Epoch: 31 October)

Date Brightness Start Highest point End Pass type
(mag) Time Alt. Az. Time Alt. Az. Time Alt. Az.
01 Nov 6.1 04:09:30 10° NE 04:10:17 11° ENE 04:11:05 10° E visible
01 Nov 2.7 05:42:50 10° NNW 05:46:41 58° W 05:50:31 10° S visible
01 Nov 6.0 19:38:51 10° W 19:40:14 12° WNW 19:41:36 10° NW visible
02 Nov 2.6 04:35:05 45° NW 04:36:02 63° W 04:39:53 10° S visible
02 Nov 6.0 18:27:49 10° W 18:29:31 12° WNW 18:31:13 10° NW visible
03 Nov 3.6 04:26:48 36° SSW 04:26:48 36° SSW 04:29:13 10° S visible
03 Nov 5.9 18:16:51 10° W 18:18:48 13° WNW 18:20:45 10° NW visible
04 Nov 5.2 04:18:12 12° S 04:18:12 12° S 04:18:33 10° S visible
04 Nov 5.8 18:05:54 10° WSW 18:08:04 14° WNW 18:10:15 10° NW visible
05 Nov 5.8 17:54:58 10° WSW 17:57:20 15° WNW 17:59:42 10° NNW visible
06 Nov 5.7 17:44:03 10° WSW 17:46:35 17° WNW 17:49:08 10° NNW visible
07 Nov 5.6 17:33:08 10° WSW 17:35:49 18° WNW 17:38:32 10° NNW visible
08 Nov 5.6 17:22:14 10° WSW 17:25:03 19° WNW 17:27:54 10° NNW visible
09 Nov 5.5 17:11:19 10° WSW 17:14:17 20° WNW 17:17:15 10° NNW visible
10 Nov 5.4 17:00:25 10° SW 17:03:29 22° WNW 17:06:34 10° NNW visible
